STARLINK-11112, 60115

Orbit data source: Space-Track

STARLINK-11112, 60115 is a payload satellite owned by SpaceX/Seattle (US) in LEO that was launched on Mon, 24 Jun 2024 UTC via an FALCON 9 launch vehicle from the Air Force Western Test Range (AFWTR). Payload-class satellites include a variety of spacecraft equipped with specific instruments for various scientific and technological missions. These include communications satellites like Starlink; space stations such as the ISS; scientific satellites like the Hubble; Earth observation satellites from companies like Planet Labs, Umbra, and HawkEye 360; GPS; miniature CubeSats for education and research; and military/defense satellites.

Loading next visibility...
Identifier
60115, 2024-118C
Orbit
LEO
Country
Flag of USUS
Related business
Manufacturer
SpaceX/Seattle
Mission
Operational Commercial Communications
Bus & Motor
STARLINK V2MD, Unknown motor
Mass
960 kg wet, ~910 kg dry
Launch date (UTC)
2024-06-24 (2 years ago)
Launch vehicle
FALCON 9
Launch site
Air Force Western Test Range (AFWTR)
Object type
Payload
Rocket body
Debris
Shape & HBR
Box + 2 Pan, 18.1 m
Radar Cross Section
36.964 m², Large (>1 m²)

Expand to show TLE details & history
Last TLE update: 6 hours ago

TLE from 6 hours ago
0 STARLINK-11112
1 60115U 24118C   26127.15769874  .00000354  00000-0  77767-5 0  9995
2 60115  53.1583 293.2372 0000944  67.4607 292.6511 15.69715858107172
Epoch: 2026-05-07T03:47Z
TLE epoch observation values (Epoch: 2026-05-07T03:47:05.171Z)
Latitude
0.00002°
Longitude
11.4578°
Altitude
360.38 km
Speed
7.694 km/s
True Right ascension
19h 32m 56s
True Declination
0° 00' 00"
Sunlit
Object was in full shadow at epoch
Visualization orbit readout
Latitude
Unknown
Longitude
Unknown
Altitude
Unknown
Speed
Unknown
Apparent Right ascension
Unknown
Apparent Declination
Unknown
Sunlit
N/A
Visualization observer readout
Local Sidereal Time
17:40:38
Azimuth
Unknown
Elevation
Unknown
Doppler factor
Unknown
Orbital elements
Apogee altitude
360.607 km
Perigee altitude
359.335 km
Semi-major axis
6,738.108 km
Eccentricity
0.00009
Inclination
53.1583°
RAAN
293.2372°
Arg. of periapsis
67.4607°
True anomaly
292.64112°
Mean anomaly
292.6511°
Eccentric anomaly
292.64611°
Mean motion
3.92407 °/min
Orbital period
91.74 mins
BSTAR
0.0000077767
Loading maneuver chart data...
Computing Atmospheric mass density...
Loading historical data...
Loading historical data...
Loading historical data...
Loading historical data...
Loading historical data...
Loading historical data...
Loading historical data...

Documentation

Showing up to 5 results
|